Weather in Matveevka

Russia / Orenburg Oblast     53°30′29″N   53°28′50″E
temp.,
°C
wind,
m/s
gust,
m/s
humid.,
%
clouds,
%
prec.,
mm/h
press.,
hPa
HPBL,
m
1 march, mon
mon123:00−18nnw349775 0.0 101059
02:00−18nnw339683 0.0 101251
05:00−19nnw239684 0.0 101421
08:00−19nnw229677 0.0 101623
11:00−17nw249376 0.0 1018168
14:00−15nw349034 0.0 1019291
17:00−15wnw359464 0.0 1020359
20:00−19wnw33100100 0.0 102124
2 march, tue
tue223:00−22w2210089 0.1 102120
02:00−23wsw2310064 0.0 102021
05:00−23ssw3410078 0.0 101949
08:00−20s58100100 0.1 1016211
11:00−15s71196100 0.3 1014327
14:00−11ssw81294100 1.3 1010526
17:00−8ssw81395100 2.1 1007648
20:00−5ssw71495100 1.0 1004568
3 march, wed
wed323:00−3sw81396100 2.8 1002610
02:00−2wsw61197100 1.4 1001463
05:00−3w5897100 1.8 1001406
08:00−4w4797100 0.2 1001323
11:00−5w469699 0.2 1003310
14:00−5w359696 0.1 1003250
17:00−5w459896 0.1 1003270
20:00−5w4796100 0.1 1004360
4 march, thu
thu423:00−7wnw4797100 0.4 1005215
02:00−10wnw499682 0.1 1005196
05:00−13wnw459984 0.1 100774
08:00−15w4610097 0.1 100883
11:00−12wsw589798 0.1 1009261
14:00−8sw6994100 0.2 1008418
17:00−6sw71194100 0.4 1008578
20:00−7sw81593100 0.2 1006683
5 march, fri
fri523:00−5sw91795100 0.7 1004834
02:00−2sw111896100 1.9 1001997
05:00−2sw121893100 2.9 10001028
08:00−2wsw121896100 1.1 1000998
11:00−2wsw111795100 2.6 10021068
14:00−3w8137887 0.4 1006793
17:00−5w498769 0.4 1010373
20:00−10w349372 0.0 101230